Flag for China Weather past 2 weeks in Langfang, Hebei, China

Now
73 °F

Fog.


Feels Like: 72 °F
Forecast: 67 / 89 °F
Wind: 1 mph from North

Location: Beijing Airport

Current Time: Aug 23, 2014 at 8:11:15 AM

Latest Report: Aug 23, 2014 at 7:30 AM


Visibility: 2 mi

Pressure: 29.71 "Hg

Humidity: 89%

Dew point: 70 °F

Location of LangfangLocation

Historic Weather in Langfang — Graph

°F

Langfang temperature yesterday

Maximum temperature yesterday: 82 °F (at 2:00 PM)
Minimum temperature yesterday: 66 °F (at 5:30 AM)
Average temperature yesterday: 76 °F

Past Weeks' High & Low Weather Summary

 TemperatureHumidityPressure
High95 °F (Aug 11, 3:30 PM)94% (Aug 10, 4:30 AM)29.92 "Hg (Aug 10, 4:30 AM)
Low61 °F (Aug 14, 4:30 AM)22% (Aug 11, 3:30 PM)29.53 "Hg (Aug 10, 3:30 PM)
Average78 °F64%29.75 "Hg
* Reported Aug 8 6:00 AM — Aug 23 6:30 AM, Langfang, Weather by CustomWeather, © 2014

Note: Actual official high and low records may vary slightly from our data, if they occured in-between our weather recording intervals... More about our weather records

Advertising

Langfang weather history for previous 24 hours

 ConditionsComfort  
Time TempWeatherWind HumidityBarometerVisibility
6:30 AM
Aug 23
72 °FFog.1 mph94%29.71 "Hg1 mi
6:00 AM72 °FFog.1 mph94%29.71 "Hg2 mi
5:30 AM72 °FFog.1 mph94%29.71 "Hg2 mi
5:00 AM72 °FFog.1 mph88%29.71 "Hg3 mi
4:30 AM72 °FFog.3 mph94%29.71 "Hg3 mi
4:00 AM72 °FFog.1 mph94%29.71 "Hg3 mi
3:30 AM72 °FFog.1 mph94%29.71 "Hg3 mi
3:00 AM73 °FFog.1 mph89%29.71 "Hg3 mi
2:30 AM73 °FThunderstorms. Fog.3 mph89%29.71 "Hg3 mi
2:00 AM77 °FThunderstorms. Passing clouds.6 mph83%29.71 "Hg4 mi
1:30 AM75 °FClear.3 mph83%29.71 "Hg4 mi
1:00 AM75 °FClear.1 mph83%29.71 "Hg4 mi
12:30 AM75 °FClear.3 mph83%29.71 "Hg4 mi
12:00 AM75 °FClear.3 mph83%29.71 "Hg4 mi
11:30 PM
Aug 22
73 °FClear.1 mph89%29.71 "Hg4 mi
11:00 PM75 °FClear.1 mph83%29.71 "Hg4 mi
10:30 PM75 °FClear.No wind83%29.71 "Hg4 mi
10:00 PM75 °FClear.No wind83%29.74 "Hg4 mi
9:30 PM75 °FClear.3 mph83%29.74 "Hg4 mi
9:00 PM75 °FClear.1 mph83%29.71 "Hg4 mi
8:30 PM77 °FClear.1 mph79%29.71 "Hg4 mi
8:00 PM77 °FClear.1 mph74%29.71 "Hg4 mi
7:30 PM79 °FClear.1 mph70%29.71 "Hg4 mi
7:00 PM81 °FClear.3 mph66%29.71 "Hg4 mi
6:30 PM82 °FClear.6 mph62%29.71 "Hg4 mi
6:00 PM81 °FSunny.3 mph66%29.68 "Hg10 mi
5:30 PM82 °FSunny.1 mph62%29.68 "Hg10 mi
5:00 PM82 °FSunny.1 mph62%29.71 "Hg10 mi
4:30 PM82 °FSunny.3 mph62%29.71 "Hg10 mi
4:00 PM82 °FPassing clouds.6 mph58%29.71 "HgN/A
3:30 PM82 °FPassing clouds.3 mph62%29.68 "HgN/A
3:00 PM82 °FSunny.1 mph58%29.71 "Hg10 mi
2:30 PM82 °FSunny.3 mph58%29.71 "Hg10 mi
2:00 PM82 °FPassing clouds.6 mph58%29.74 "HgN/A
1:30 PM81 °FSunny.1 mph62%29.74 "Hg10 mi
1:00 PM81 °FPassing clouds.3 mph62%29.74 "HgN/A
12:30 PM81 °FSunny.1 mph62%29.77 "Hg10 mi
12:00 PM81 °FSunny.1 mph62%29.77 "Hg10 mi
11:30 AM81 °FSunny.1 mph66%29.77 "Hg10 mi
11:00 AM81 °FSunny.1 mph66%29.80 "Hg10 mi
10:30 AM81 °FSunny.1 mph62%29.80 "Hg10 mi
10:00 AM79 °FSunny.1 mph65%29.80 "Hg10 mi
9:30 AM79 °FPassing clouds.3 mph65%29.80 "HgN/A
9:00 AM77 °FSunny.1 mph69%29.80 "Hg10 mi
8:30 AM77 °FSunny.1 mph69%29.80 "Hg10 mi
8:00 AM75 °FPassing clouds.3 mph74%29.80 "HgN/A
Weather by CustomWeather, © 2014

See weather overviewHow to use our weather pages